Meteo Giornale » Osservazioni meteo Italia » Bergamo-Orio Al Serio

ore: 07:50 - Osservazioni Meteo Bergamo-Orio Al Serio
Lat. 45° 40' N Lon. 9° 42' E Alt. 238 metri s.l.m.

sereno Europe/Rome

1 °C

Sereno

Temp. 24 Ore

1 °C

11 °C

Nord

7.4 Km/h

Dew point -0 °C

Umidità 93 %

Visibilità  7 Km

Il sole sorge alle ore 07:34

Il sole tramonta alle ore 16:43

Data e Ora Cielo e Fenomeni T °C DP °C Um. % Pres. hPa Vis. km Vento km/h
Oggi h: 07:50 sereno Sereno 1 -0 93 1025 7 N 7.4
Oggi h: 07:20 sereno Sereno 1 -0 93 1024 10 N 7.4
Oggi h: 06:50 sereno Sereno 1 -1 86 1024 8 N 9.3
Oggi h: 06:20 sereno Sereno 1 -0 93 1024 8 N 5.5
Oggi h: 05:50 sereno Sereno 2 0 86 1024 8 N 5.5
Oggi h: 04:50 sereno Sereno 2 -0 86 1024 8 N 5.5
Oggi h: 04:20 sereno Sereno 2 -0 86 1024 8 N 9.3
Oggi h: 03:50 sereno Sereno 2 0 86 1024 8 N/NE 7.4
Oggi h: 03:20 sereno Sereno 2 0 86 1024 10 N 5.5
Oggi h: 02:50 sereno Sereno 2 0 86 1024 10 N 7.4
Oggi h: 02:20 sereno Sereno 2 0 86 1024 10 N 7.4
Oggi h: 01:20 sereno Sereno 2 0 86 1024 10 N 7.4
Oggi h: 00:50 sereno Sereno 2 0 86 1024 10 N 7.4
Oggi h: 00:20 sereno Sereno 2 1 93 1025 10 N 9.3
Ieri h: 23:50 sereno Sereno 3 1 86 1025 10 N 9.3
Ieri h: 23:20 sereno Sereno 2 1 93 1024 6 N 9.3
Ieri h: 22:50 sereno Sereno 3 1 86 1024 6 N 7.4
Ieri h: 22:20 sereno Sereno 3 1 86 1024 6 N 9.3
Ieri h: 21:50 sereno Sereno 3 1 86 1024 6 N 7.4
Ieri h: 21:20 sereno Sereno 3 2 93 1024 6 N 3.7
Ieri h: 20:50 sereno Sereno 4 2 86 1024 7 N 5.5
Ieri h: 20:20 sereno Sereno 3 2 93 1024 6 N 5.5
Ieri h: 19:50 sereno Sereno 4 2 86 1024 6 N 3.7
Ieri h: 19:20 sereno Sereno 5 2 80 1024 7 N 5.5
Ieri h: 18:20 sereno Sereno 5 3 86 1023 6 N 5.5
Ieri h: 17:50 sereno Sereno 6 3 81 1023 7 N 3.7
Ieri h: 17:20 sereno Sereno 7 3 75 1023 6 N 1.8
Ieri h: 16:50 sereno Sereno 8 3 70 1023 6 N 5.5
Ieri h: 15:50 sereno Sereno 10 2 57 1023 10 S 7.4
Ieri h: 15:20 sereno Sereno 11 2 53 1023 10 N 5.5
Ieri h: 14:20 sereno Sereno 11 2 53 1023 10 N 5.5
Ieri h: 13:50 sereno Sereno 11 2 53 1023 10 N 5.5
Ieri h: 13:20 sereno Sereno 10 2 57 1023 10 N 5.5
Ieri h: 12:50 sereno Sereno 11 1 50 1023 10 N 3.7
Ieri h: 12:20 sereno Sereno 10 1 53 1023 10 N 5.5
Ieri h: 11:50 sereno Sereno 10 2 57 1024 10 N 3.7
Ieri h: 11:20 sereno Sereno 9 1 57 1024 10 N 3.7
Ieri h: 10:50 sereno Sereno 8 2 65 1024 10 N 3.7
Ieri h: 10:20 sereno Sereno 7 2 70 1024 10 N 3.7
Ieri h: 09:50 sereno Sereno 6 1 70 1024 10 N 5.5
Ieri h: 09:20 sereno Sereno 4 1 80 1024 10 N 7.4
Ieri h: 08:50 sereno Sereno 3 -0 80 1024 10 N 7.4
Ieri h: 08:20 sereno Sereno 2 -0 86 1024 10 N 9.3
Ieri h: 07:50 sereno Sereno 2 -1 80 1024 10 N/NE 9.3